Stations météo

réclame
Mon MeteoGroup
Pau, France (7610): Température de l'air & dewpoint: 11.01.2018 08:00:00 - 17.01.2018 08:00:00 (CET)Pau, France (7610): Température de l'air 5cm: 11.01.2018 08:00:00 - 17.01.2018 08:00:00 (CET)Pau, France (7610): Température de l'air -20cm & Température de l'air -100cm: 11.01.2018 08:00:00 - 17.01.2018 08:00:00 (CET)Pau, France (7610): Vitesse du vent & gusts: 11.01.2018 08:00:00 - 17.01.2018 08:00:00 (CET)Pau, France (7610): Direction du vent: 11.01.2018 08:00:00 - 17.01.2018 08:00:00 (CET)Pau, France (7610): reduced air pressure: 11.01.2018 08:00:00 - 17.01.2018 08:00:00 (CET)Pau, France (7610): visibility: 11.01.2018 08:00:00 - 17.01.2018 08:00:00 (CET)Pau, France (7610): Ensoleillement: 11.01.2018 08:00:00 - 17.01.2018 08:00:00 (CET)Pau, France (7610): Quantités de précipitations: 11.01.2018 08:00:00 - 17.01.2018 08:00:00 (CET)
Date & Time tt [°C] td [°C] tt 5cm [°C] tt -20cm [°C] tt -100cm [°C] ff [km/h] ff [knt] fx [km/h] fx [knt] dd ppp [hPa] vv [km] sd [min] rr [mm]
17.01.2018 08:00:00 - - - - - - - - - - - - - -
17.01.2018 07:00:00 9,2 7,1 7,8 9,6 10,3 21 11 40 22 WSW 1024,5 10 0 0,0
17.01.2018 06:00:00 9,3 7,6 8,2 9,6 10,3 31 17 53 29 WSW 1024,3 10 0 0,2
17.01.2018 05:00:00 9,5 7,3 8,4 9,6 10,3 24 13 53 29 W 1023,5 10 0 0,2
17.01.2018 04:00:00 10,0 8,4 9,1 9,6 10,3 26 14 48 26 WNW 1023,3 6 0 1,6
17.01.2018 03:00:00 10,9 8,6 9,8 9,5 10,3 29 16 69 38 W 1022,5 10 0 0,2
17.01.2018 02:00:00 10,9 9,3 10,2 9,5 10,3 39 21 66 35 WNW 1021,7 5 0 0,8
17.01.2018 01:00:00 11,8 10,2 10,7 9,4 10,3 29 16 59 32 W 1021,0 10 0 0,4
17.01.2018 00:00:00 11,9 10,6 11,1 9,4 10,3 31 17 55 30 W 1021,1 10 0 1,8
16.01.2018 23:00:00 11,8 11,0 11,3 9,4 10,3 22 12 37 20 W 1021,0 7 0 1,0
16.01.2018 22:00:00 12,0 10,7 11,3 9,3 10,3 24 13 43 23 W 1020,7 5 0 0,6
16.01.2018 21:00:00 12,7 10,4 11,6 9,2 10,3 24 13 50 27 W 1020,9 10 0 0,0
16.01.2018 20:00:00 12,5 10,4 11,5 9,2 10,3 24 13 47 25 WSW 1020,8 10 0 0,0
16.01.2018 19:00:00 12,4 10,3 11,2 9,2 10,3 24 13 41 22 WSW 1020,9 10 0 0,0
16.01.2018 18:00:00 12,2 10,3 11,1 9,1 10,3 26 14 40 22 WSW 1021,0 10 0 0,0
16.01.2018 17:00:00 11,6 10,8 11,2 9,0 10,3 20 11 39 21 WSW 1021,4 12 0 0,6
16.01.2018 16:00:00 11,9 11,0 11,5 9,0 10,3 23 12 39 21 WSW 1021,8 6 0 0,6
16.01.2018 15:00:00 11,9 11,1 11,5 8,9 10,3 18 10 35 19 WSW 1021,9 3,6 0 0,6
16.01.2018 14:00:00 12,2 10,9 11,6 8,9 10,3 22 12 41 22 WSW 1022,5 10 0 0,2
16.01.2018 13:00:00 11,8 10,7 11,4 8,9 10,4 22 12 48 26 WSW 1023,3 10 0 0,2
16.01.2018 12:00:00 11,6 10,3 11,1 8,8 10,4 26 14 40 22 WSW 1024,0 10 0 0,0
16.01.2018 11:00:00 11,4 10,5 10,6 8,8 10,4 23 12 39 21 WSW 1023,9 57 0 0,4
16.01.2018 10:00:00 10,9 10,3 10,4 8,7 10,4 16 9 35 19 WSW 1023,5 2,7 0 1,4
16.01.2018 09:00:00 10,7 10,1 10,3 8,7 10,4 24 13 43 23 W 1022,9 2,6 0 1,0
16.01.2018 08:00:00 10,8 9,7 10,1 8,7 10,4 21 12 39 21 WSW 1021,5 4,9 0 0,6
16.01.2018 07:00:00 10,7 9,6 10,0 8,6 10,3 21 12 41 22 WSW 1021,1 5 0 0,4
16.01.2018 06:00:00 11,0 9,4 9,9 8,6 10,4 21 11 38 20 W 1020,7 10 0 0,6
16.01.2018 05:00:00 11,0 9,3 10,0 8,6 10,4 23 12 48 26 W 1020,6 9 0 0,2
16.01.2018 04:00:00 11,9 9,1 10,0 8,6 10,4 27 15 40 22 WSW 1020,3 17 0 0,2
16.01.2018 03:00:00 11,2 8,9 9,9 8,5 10,4 24 13 44 24 WSW 1020,6 15 0 0,0
16.01.2018 02:00:00 11,7 8,5 10,0 8,5 10,4 29 15 45 25 WSW 1020,7 15 0 0,0
16.01.2018 01:00:00 12,4 7,9 9,2 8,5 10,4 22 12 37 20 WSW 1020,8 10 0 0,0
16.01.2018 00:00:00 10,3 7,9 9,1 8,5 10,4 9 5 31 17 WSW 1021,3 10 0 0,2
15.01.2018 23:00:00 11,5 7,4 9,7 8,5 10,4 23 13 38 20 WSW 1021,2 14 0 0,0
15.01.2018 22:00:00 11,0 4,9 10,0 8,5 10,4 18 10 37 20 WSW 1020,9 60 0 0,0
15.01.2018 21:00:00 10,8 3,6 9,3 8,4 10,4 28 15 42 23 W 1020,5 10 0 0,0
15.01.2018 20:00:00 10,4 1,2 9,2 8,4 10,4 18 10 29 16 W 1020,3 60 0 0,0
15.01.2018 19:00:00 10,3 0,9 8,4 8,3 10,4 14 8 22 12 WSW 1020,2 60 0 0,0
15.01.2018 18:00:00 10,0 3,0 8,8 8,2 10,4 5 3 11 6 - 1020,5 10 0 0,0
15.01.2018 17:00:00 10,3 4,0 9,8 8,2 10,4 9 5 16 9 W 1020,6 10 0 0,0
15.01.2018 16:00:00 10,5 4,4 10,7 8,1 10,4 9 5 22 12 WNW 1020,6 10 0 0,0
15.01.2018 15:00:00 11,1 5,2 11,7 8,0 10,4 15 8 27 14 W 1021,1 10 0 0,0
15.01.2018 14:00:00 11,3 4,7 12,5 8,1 10,4 16 9 27 15 W 1021,8 10 31 0,0
15.01.2018 13:00:00 11,3 6,2 9,8 8,0 10,4 13 7 19 10 WSW 1022,3 60 25 0,0
15.01.2018 12:00:00 8,9 5,6 7,7 8,0 10,4 9 5 15 8 SSW 1023,9 10 0 0,0
15.01.2018 11:00:00 7,7 5,7 6,6 8,0 10,4 8 4 13 7 WNW 1025,1 10 0 0,0
15.01.2018 10:00:00 6,3 4,9 6,2 8,1 10,4 6 3 9 5 NE 1025,1 20 0 0,0
15.01.2018 09:00:00 6,9 5,0 5,2 8,1 10,5 5 3 13 7 S 1024,2 58 0 0,0
15.01.2018 08:00:00 5,9 4,2 4,3 8,2 10,5 8 4 10 6 SW 1023,7 10 0 0,0
15.01.2018 07:00:00 6,0 4,3 3,0 8,2 10,5 7 4 15 8 SSW 1023,5 60 0 0,0
15.01.2018 06:00:00 5,0 3,7 3,4 8,2 10,5 4 2 8 4 SSE 1023,4 56 0 0,0
15.01.2018 05:00:00 5,6 3,9 4,4 8,2 10,5 5 3 8 4 SSW 1023,2 10 0 0,0
15.01.2018 04:00:00 4,9 4,0 1,9 8,2 10,5 5 3 6 3 S 1023,4 35 0 0,0
15.01.2018 03:00:00 3,9 2,1 1,6 8,3 10,5 4 2 9 5 - 1023,3 10 0 0,0
15.01.2018 02:00:00 5,6 3,6 3,4 8,2 10,5 5 3 14 7 SSW 1023,0 10 0 0,0
15.01.2018 01:00:00 6,0 4,0 4,0 8,2 10,5 8 4 11 6 SSW 1023,1 10 0 0,0
15.01.2018 00:00:00 6,6 4,4 5,9 8,3 10,5 5 3 13 7 SW 1022,8 60 0 0,0
14.01.2018 23:00:00 6,7 4,2 5,6 8,3 10,5 11 6 19 11 SW 1021,9 10 0 0,0
14.01.2018 22:00:00 6,3 4,1 5,4 8,2 10,5 8 5 15 8 SW 1021,6 60 0 0,0
14.01.2018 21:00:00 6,1 4,3 5,2 8,2 10,5 9 5 16 9 SW 1021,1 60 0 0,0
14.01.2018 20:00:00 5,9 4,4 5,2 8,2 10,5 8 4 18 10 SW 1020,5 26 0 0,0
14.01.2018 19:00:00 6,2 5,2 5,8 8,2 10,5 13 7 24 13 SW 1019,5 60 0 0,2
14.01.2018 18:00:00 6,7 5,5 5,9 8,2 10,6 11 6 24 13 WSW 1018,9 24 0 0,2
14.01.2018 17:00:00 6,9 5,0 6,5 8,1 10,6 5 3 21 12 - 1018,0 10 0 0,0
14.01.2018 16:00:00 7,3 5,3 7,3 8,1 10,6 14 7 23 12 SW 1017,5 53 0 0,2
14.01.2018 15:00:00 7,5 5,6 6,8 8,1 10,6 14 7 29 15 SW 1017,1 38 0 0,0
14.01.2018 14:00:00 6,8 5,6 6,8 8,1 10,6 11 6 24 13 SSW 1016,9 26 0 1,2
14.01.2018 13:00:00 7,1 5,9 6,7 8,1 10,6 15 8 24 13 SW 1017,3 10 0 0,4
14.01.2018 12:00:00 6,8 5,4 6,4 8,1 10,6 13 7 32 17 SW 1017,7 10 0 0,0
14.01.2018 11:00:00 6,3 5,3 5,7 8,1 10,6 16 8 24 13 SW 1017,3 41 0 0,2
14.01.2018 10:00:00 5,7 4,8 4,9 8,1 10,6 8 4 13 7 SW 1016,9 10 0 0,4
14.01.2018 09:00:00 5,2 4,3 4,5 8,1 10,6 9 5 14 8 SSW 1016,2 10 0 0,8
14.01.2018 08:00:00 4,8 4,1 4,4 8,2 10,6 10 6 13 7 SSE 1015,9 13 0 0,6
14.01.2018 07:00:00 4,8 3,9 4,3 8,2 10,7 7 4 14 8 SW 1015,8 9 0 1,0
14.01.2018 06:00:00 4,7 3,8 4,3 8,2 10,7 4 2 6 3 W 1015,7 5 0 0,2
14.01.2018 05:00:00 4,7 4,0 4,2 8,2 10,7 4 2 7 4 SSE 1015,7 3,3 0 0,0
14.01.2018 04:00:00 4,8 3,9 4,2 8,2 10,7 0 0 4 2 N 1015,8 2,7 0 0,2
14.01.2018 03:00:00 5,0 3,7 4,3 8,2 10,6 0 0 11 6 N 1015,8 4,2 0 0,2
14.01.2018 02:00:00 4,6 3,1 4,0 8,3 10,7 5 3 6 3 SE 1015,7 10 0 0,0
14.01.2018 01:00:00 4,4 3,1 3,8 8,3 10,7 4 2 5 3 ESE 1015,7 10 0 0,0
14.01.2018 00:00:00 4,8 3,1 3,5 8,3 10,7 3 2 6 4 WSW 1015,7 16 0 0,0
13.01.2018 23:00:00 4,4 2,9 3,6 8,3 10,7 2 1 9 5 N 1015,7 9 0 0,0
13.01.2018 22:00:00 4,6 3,1 3,5 8,4 10,7 3 2 4 2 E 1015,6 14 0 0,0
13.01.2018 21:00:00 4,7 3,2 3,5 8,3 10,7 3 2 4 2 W 1015,4 17 0 0,0
13.01.2018 20:00:00 4,8 3,3 3,6 8,3 10,7 5 3 7 4 N 1014,9 14 0 0,0
13.01.2018 19:00:00 5,5 3,7 3,8 8,2 10,7 3 2 7 4 E 1014,7 23 0 0,0
13.01.2018 18:00:00 6,4 4,1 4,8 8,2 10,7 2 1 4 2 E 1014,3 36 0 0,0
13.01.2018 17:00:00 7,4 3,6 6,6 8,2 10,7 2 1 5 3 WSW 1014,3 37 0 0,0
13.01.2018 16:00:00 7,6 4,2 7,6 8,2 10,7 3 2 9 5 WNW 1014,1 41 0 0,0
13.01.2018 15:00:00 8,1 4,3 8,3 8,2 10,7 5 3 8 5 NNE 1013,6 50 0 0,0
13.01.2018 14:00:00 7,7 3,7 8,7 8,2 10,7 5 3 8 4 WNW 1014,2 55 0 0,0
13.01.2018 13:00:00 7,2 1,9 7,5 8,2 10,7 0 0 7 4 N 1014,7 49 8 0,0
13.01.2018 12:00:00 6,3 0,2 7,6 8,3 10,8 0 0 6 3 N 1015,6 10 16 0,0
13.01.2018 11:00:00 4,8 -0,2 4,1 8,3 10,7 0 0 9 5 N 1015,9 10 2 0,0
13.01.2018 10:00:00 3,1 -0,9 0,4 8,4 10,7 4 2 8 4 ESE 1015,9 59 18 0,0
13.01.2018 09:00:00 1,3 -0,6 -0,3 8,5 10,8 4 2 6 3 SSE 1016,2 58 0 0,0
13.01.2018 08:00:00 2,2 -1,2 0,6 8,5 10,8 3 2 8 4 ESE 1016,1 58 0 0,0
13.01.2018 07:00:00 2,8 -0,8 1,0 8,6 10,8 4 2 13 7 SE 1016,3 59 0 0,0
13.01.2018 06:00:00 2,7 -0,6 1,5 8,7 10,8 9 5 19 10 ESE 1016,7 10 0 0,0
13.01.2018 05:00:00 2,2 -0,2 -0,5 8,7 10,8 13 7 18 10 ESE 1017,7 10 0 0,0
13.01.2018 04:00:00 1,6 -0,5 -1,7 8,8 10,8 8 4 16 8 S 1019,2 38 0 0,0
13.01.2018 03:00:00 1,4 -0,1 -1,7 8,8 10,8 5 3 8 5 ESE 1019,5 10 0 0,0
13.01.2018 02:00:00 3,2 0,8 0,6 8,9 10,8 7 4 13 7 ESE 1020,2 35 0 0,0
13.01.2018 01:00:00 3,4 1,1 0,1 8,9 10,8 4 2 16 9 SE 1021,2 26 0 0,0
13.01.2018 00:00:00 3,4 1,4 0,1 9,0 10,8 11 6 16 9 E 1022,0 49 0 0,0
12.01.2018 23:00:00 4,1 1,5 -1,4 9,0 10,8 8 4 14 8 ESE 1022,4 49 0 0,0
12.01.2018 22:00:00 2,9 1,4 -1,1 9,0 10,8 9 5 13 7 ESE 1023,2 10 0 0,0
12.01.2018 21:00:00 3,8 2,3 -0,1 9,0 10,8 5 3 11 6 ESE 1023,7 10 0 0,0
12.01.2018 20:00:00 4,3 2,8 0,6 8,9 10,8 8 4 11 6 E 1023,8 27 0 0,0
12.01.2018 19:00:00 6,3 3,3 2,6 8,8 10,8 6 3 9 5 E 1023,6 44 0 0,0
12.01.2018 18:00:00 8,1 3,4 3,3 8,6 10,8 5 3 10 5 NE 1023,6 60 19 0,0
12.01.2018 17:00:00 10,5 2,3 12,4 8,5 10,8 4 2 10 5 NNE 1023,5 10 60 0,0
12.01.2018 16:00:00 12,4 2,3 16,4 8,4 10,8 3 1 8 4 N 1023,4 20 60 0,0
12.01.2018 15:00:00 11,8 2,0 16,4 8,3 10,8 5 3 13 7 W 1023,7 40 60 0,0
12.01.2018 14:00:00 11,5 3,0 16,5 8,3 10,8 5 3 11 6 WNW 1024,3 55 60 0,0
12.01.2018 13:00:00 10,3 4,6 15,3 8,3 10,8 4 2 10 5 - 1024,9 10 60 0,0
12.01.2018 12:00:00 10,0 4,6 12,8 8,3 10,8 4 2 6 3 - 1025,4 10 60 0,0
12.01.2018 11:00:00 7,6 3,8 5,3 8,4 10,8 4 2 9 5 SSE 1026,4 42 48 0,0
12.01.2018 10:00:00 4,7 3,0 2,0 8,4 10,8 4 2 8 4 SSE 1026,3 59 13 0,0
12.01.2018 09:00:00 2,8 1,5 1,1 8,5 10,8 5 3 14 8 - 1026,1 10 2 0,0
12.01.2018 08:00:00 3,7 2,5 2,4 8,5 10,9 5 3 11 6 ESE 1025,8 10 0 0,2
12.01.2018 07:00:00 3,5 2,5 1,6 8,6 10,9 8 4 11 6 SSE 1025,8 36 0 0,0
12.01.2018 06:00:00 3,6 2,7 2,6 8,6 10,9 5 3 11 6 ESE 1025,6 12 0 0,0
12.01.2018 05:00:00 3,1 2,5 2,5 8,7 10,9 5 3 12 6 E 1025,6 12 0 0,0
12.01.2018 04:00:00 3,0 2,6 0,4 8,7 10,9 9 5 11 6 SE 1025,6 8 0 0,0
12.01.2018 03:00:00 1,8 1,4 -0,1 8,8 10,9 5 3 7 4 ESE 1025,8 4,1 0 0,0
12.01.2018 02:00:00 2,2 1,8 -1,2 8,8 10,9 3 2 5 3 SSE 1025,4 3,4 0 0,0
12.01.2018 01:00:00 2,3 1,7 -0,5 8,9 10,9 2 1 6 3 - 1024,9 9 0 0,0
12.01.2018 00:00:00 2,7 2,0 0,3 8,9 10,9 4 2 7 4 E 1024,8 7 0 0,0
11.01.2018 23:00:00 3,1 2,5 1,9 9,0 10,9 2 1 7 4 - 1024,6 8 0 0,0
11.01.2018 22:00:00 2,8 2,4 -0,4 9,0 10,9 2 1 8 4 E 1024,4 6 0 0,0
11.01.2018 21:00:00 2,4 1,4 -0,3 9,0 10,9 3 2 8 4 ENE 1023,4 21 0 0,0
11.01.2018 20:00:00 4,0 1,9 0,7 9,0 10,9 4 2 9 5 SW 1022,4 60 0 0,0
11.01.2018 19:00:00 5,4 3,1 3,8 9,0 10,9 5 3 10 5 - 1022,0 10 0 0,2
11.01.2018 18:00:00 5,7 3,2 5,4 9,0 10,9 6 3 29 16 SW 1021,4 60 0 0,0
11.01.2018 17:00:00 6,2 3,5 5,6 9,0 10,9 19 10 34 18 WSW 1020,6 60 39 0,0
11.01.2018 16:00:00 6,1 3,8 5,5 9,0 10,9 23 13 42 23 W 1019,8 30 0 0,6
11.01.2018 15:00:00 7,4 4,0 5,8 9,0 10,9 24 13 40 21 W 1018,9 51 20 0,0
11.01.2018 14:00:00 6,4 3,9 5,6 9,0 10,9 19 10 39 21 WSW 1018,8 36 1 0,4
11.01.2018 13:00:00 7,2 4,3 6,6 9,0 10,9 22 12 36 19 W 1018,7 58 0 0,2
11.01.2018 12:00:00 7,0 5,0 5,3 9,1 10,9 11 6 20 11 SW 1019,0 10 6 0,4
11.01.2018 11:00:00 6,4 4,2 6,1 9,1 10,9 18 10 33 18 W 1019,2 17 16 0,2
11.01.2018 10:00:00 5,9 3,4 3,4 9,2 10,9 18 10 36 19 WSW 1018,5 57 26 0,0
11.01.2018 09:00:00 4,7 3,0 3,1 9,2 10,9 14 8 32 17 W 1017,8 60 0 0,0
11.01.2018 08:00:00 5,6 3,1 4,5 9,3 10,9 17 9 29 16 W 1017,3 20 0 0,8

tt = Température de l'air
td = dewpoint
tt 5cm = Température de l'air 5cm
tt -20cm = Température de l'air -20cm
tt -100cm = Température de l'air -100cm
ff = Vitesse du vent
fx = gusts
dd = Direction du vent
ppp = reduced air pressure
vv = visibility
sd = Ensoleillement
rr = Quantités de précipitations

stations d'obs. à proximité